Regional Weather Roundup
Issued by NWS

Home | Current Version | Previous Version | Graphics & Text | Print | Product List | Glossary On
Versions: 1 2 3 4 5 6 7 8 9 10 11 12 13 14 15 16 17 18 19 20 21 22 23 24 25 26 27 28 29 30 31 32 33 34 35 36 37 38 39 40 41 42 43 44 45 46 47 48 49
000
ASUS43 KDMX 220507
RWRIA

WEATHER ROUNDUP FOR IOWA
NATIONAL WEATHER SERVICE DES MOINES IA
1200 AM CDT MON SEP 22 2014

NOTE: "FAIR" INDICATES FEW OR NO CLOUDS BELOW 12,000 FEET WITH NO
SIGNIFICANT WEATHER AND/OR OBSTRUCTIONS TO VISIBILITY.

* - THESE STATIONS ARE NOT NWS STATIONS...THUS NOT UNDER NWS
QUALITY CONTROL.  THEY ALSO DO NOT REPORT WEATHER SUCH
AS PRECIPITATION OR FOG.

IAZ001>003-012>014-020>022-031>034-043>046-220600-
   NORTHWEST IOWA

CITY           SKY/WX    TMP DP  RH WIND       PRES   REMARKS
CARROLL *      CLEAR     46  46 100 NW3       30.26S
CHEROKEE *     CLEAR     48  48 100 CALM      30.27S
DENISON *      CLEAR     48  48 100 CALM      30.25S
LE MARS *        N/A     48  48 100 CALM      30.28R
ORANGE CITY *  CLEAR     54  46  76 CALM      30.27S
SHELDON *      CLEAR     45  45 100 CALM      30.26S
SIOUX CITY     CLEAR     50  47  89 S3        30.27S
SPENCER        CLEAR     46  43  89 CALM      30.27R
STORM LAKE *   CLEAR     54  50  87 N3        30.27R
$$

IAZ055>058-069>071-079>083-090>094-220600-
   SOUTHWEST IOWA

CITY           SKY/WX    TMP DP  RH WIND       PRES   REMARKS
ATLANTIC *     CLEAR     50  48  93 CALM      30.26S
AUDUBON *      CLEAR     46  43  87 CALM      30.27S
CLARINDA *     CLEAR     48  46  93 CALM      30.28S
COUNCIL BLFS * CLEAR     55  50  82 CALM      30.26R
CRESTON *      CLEAR     55  48  76 N8        30.26S
HARLAN  *      CLEAR     48  48 100 CALM      30.30S
LAMONI         CLEAR     51  48  89 NW5       30.25S
RED OAK *      CLEAR     48  48 100 CALM      30.27S
SHENANDOAH *   CLEAR     48  48 100 CALM      30.27S
$$

IAZ047>049-059>061-072>074-084-220600-
   CENTRAL IOWA

CITY           SKY/WX    TMP DP  RH WIND       PRES   REMARKS
AMES           CLEAR     49  47  93 CALM      30.24S
ANKENY *       CLEAR     50  48  93 CALM      30.24S
CHARITON *     CLEAR     54  48  82 N6        30.24S
DES MOINES     CLEAR     58  48  69 N6        30.24S
GRINNELL*      CLEAR     50  46  87 NW5       30.23F
KNOXVILLE *    CLEAR     54  48  82 NW5       30.23S
MARSHALLTOWN   CLEAR     49  46  90 NW3       30.22S
PELLA *        CLEAR     51  47  87 CALM      30.25S
PERRY *          N/A     50  48  93 NW5       30.25S
$$

IAZ004>006-015-016-023>025-035-036-220600-
   NORTH CENTRAL IOWA

CITY           SKY/WX    TMP DP  RH WIND       PRES   REMARKS
ALGONA *       CLEAR     50  48  93 NW5       30.26S
CLARION *        N/A     46  46 100 NW5       30.25R
ESTHERVILLE    CLEAR     46  44  93 NW6       30.26S
FORT DODGE *   CLEAR     48  45  87 CALM      30.26R
MASON CITY     CLEAR     49  47  93 NW9       30.25R
FOREST CITY *  CLEAR     52  50  93 NW6       30.24S
IOWA FALLS *     N/A     48  45  87 W5        30.24S
$$

IAZ007>011-017>019-026>030-037>042-050>054-066-220600-
   NORTHEAST IOWA

CITY           SKY/WX    TMP DP  RH WIND       PRES   REMARKS
CEDAR RAPIDS   CLEAR     49  47  93 N5        30.20S
CHARLES CITY * CLEAR     48  46  93 N5        30.24R
CLINTON *      CLEAR     48  45  87 N9        30.21S
DECORAH *      CLEAR     50  46  87 NW5       30.21R
DUBUQUE        CLEAR     49  45  86 N7        30.20S
MONTICELLO *   CLEAR     45  45 100 CALM      30.20S
OELWEIN *      CLEAR     46  46 100 NW8       30.23R
WATERLOO       CLEAR     48  45  89 N5        30.21S
$$

IAZ064-065-067-068-078-220600-
   EAST CENTRAL IOWA

CITY           SKY/WX    TMP DP  RH WIND       PRES   REMARKS
DAVENPORT      CLEAR     48  44  86 NW3       30.19R
IOWA CITY        N/A     49  47  93 W5        30.22R
MT. PLEASANT * CLEAR     55  48  76 NW6       30.21R
MUSCATINE *    CLEAR     52  48  87 NW6       30.21R
QUAD CITIES    CLEAR     56  46  69 NW5       30.18R
$$

IAZ062-063-075>077-085>089-095>099-220600-
   SOUTHEAST IOWA

CITY           SKY/WX    TMP DP  RH WIND       PRES   REMARKS
BURLINGTON     CLEAR     54  50  86 NW8       30.19S
FAIRFIELD *    CLEAR     50  46  87 NW7       30.22S
FORT MADISON * CLEAR     54  52  94 NW3       30.21R
KEOKUK *       CLEAR     55  50  82 NW5       30.19S
OSKALOOSA *      N/A     50  46  87 NW6       30.24R
CENTERVILLE *  CLEAR     50  50 100 NW5       30.25S
OTTUMWA        CLEAR     50  46  86 NW8       30.23R
WASHINGTON *   CLEAR     52  48  87 NW7       30.22R
$$

ABBREVIATIONS USED IN REMARKS
   TC - TEMPERATURES IN CELSIUS
  WCI - WIND CHILL INDEX
   HX - HEAT INDEX
  VSB - VISIBILITY
$$



USA.gov is the U.S. government's official web portal to all federal, state and local government web resources and services.